Location: Asis
(14.1331°N, 120.9056°E)
Time: 12:52:09
(UTC+00:00)

CARTOSAT-1 - Pass Details

Date: 15 January 2026
Orbit: 594 x 598 km, 97.5° (Epoch: 17 February)

Event Time Altitude Azimuth Distance (km) Brightness Sun altitude
Rises 10:46:56 0° 158° (SSE) 2,830 6.9 -14.4°
Reaches altitude 10° 10:49:09 10° 152° (SSE) 1,929 6.0 -14.9°
Maximum altitude 10:53:12 49° 77° (ENE) 774 3.6 -15.9°
Drops below altitude 10° 10:57:14 10° 3° (N) 1,931 5.9 -16.8°
Sets 10:59:27 0° 358° (N) 2,833 6.8 -17.3°
